Showing default

TELKOM-4, 43587

Orbit data source: Space-Track

TELKOM-4, 43587 is a payload satellite owned by Telkom (ID) in GEO that was launched on Tue, 07 Aug 2018 UTC via an FALCON 9 launch vehicle from the Air Force Eastern Test Range (AFETR). Payload-class satellites include a variety of spacecraft equipped with specific instruments for various scientific and technological missions. These include communications satellites like Starlink; space stations such as the ISS; scientific satellites like the Hubble; Earth observation satellites from companies like Planet Labs, Umbra, and HawkEye 360; GPS; miniature CubeSats for education and research; and military/defense satellites.

Not visible in the next 10 days
Identifier
43587, 2018-064A
Orbit
GEO
Country
Flag of IDID / INDO
Related business
Manufacturer
Maxar SSL
Mission
Operational Commercial Communications
Bus & Motor
LS-1300, R-4D
Mass
5,800 kg wet, ~3,000 kg dry
Launch date (UTC)
2018-08-07 (8 years ago)
Launch vehicle
FALCON 9
Launch site
Air Force Eastern Test Range (AFETR)
Object type
Payload
Rocket body
Debris
Shape & HBR
Box + 2 Pan, 13.5 m
Radar Cross Section
38.796 m², Large (>1 m²)

Expand to show TLE details & history
Last TLE update: 2 days ago

TLE from 2 days ago
0 TELKOM-4
1 43587U 18064A   26171.41343206  .00000000  00000-0  00000+0 0  9995
2 43587   0.0169  12.0761 0001515 103.4112  49.9772  1.00269652 28915
Epoch: 2026-06-20T09:55Z
TLE epoch observation values (Epoch: 2026-06-20T09:55:20.529Z)
Latitude
0.01384°
Longitude
108.02621°
Altitude
35,782.581 km
Speed
3.075 km/s
True Right ascension
11h 01m 57s
True Declination
0° 00' 50"
Sunlit
Object was in daylight at epoch
Visualization orbit readout
Latitude
Unknown
Longitude
Unknown
Altitude
Unknown
Speed
Unknown
Apparent Right ascension
Unknown
Apparent Declination
Unknown
Sunlit
N/A
Visualization observer readout
Local Sidereal Time
21:24:06
Azimuth
Unknown
Elevation
Unknown
Doppler factor
Unknown
Orbital elements
Apogee altitude
35,794.652 km
Perigee altitude
35,781.875 km
Semi-major axis
42,166.4 km
Eccentricity
0.00015
Inclination
0.0169°
RAAN
12.0761°
Arg. of periapsis
103.4112°
True anomaly
49.9905°
Mean anomaly
49.9772°
Eccentric anomaly
49.98385°
Mean motion
0.25066 °/min
Orbital period
1,436.18 mins
BSTAR
0
Loading maneuver chart data...
Computing Atmospheric mass density...
Loading historical data...
Loading historical data...
Loading historical data...
Loading historical data...
Loading historical data...
Loading historical data...
Loading historical data...
Other satellites on launch #64 in the year 2018 (2018-08-07 UTC)

Documentation

Showing up to 5 results
|